[[{"header":{"parameterUnit":"m.s-1","parameterCategory":1,"la1":30.2991,"la2":30.254,"lo1":-89.0895,"lo2":-89.0444,"dy":0.0017,"dx":0.0017,"nx":28,"ny":28,"refTime":"2023-11-10T09:00:00:Z","depth":0,"parameterNumber":2,"parameterNumberName":"U-component_of_WINDS"},"data":[0,0,0,0,0,0,0,0,0,0,0,0,0,0,0,0,0,0,0,0,0,0,0,0,0,0,0,0,0,0,0,0,0,0,0,0,0,0,0,0,0,0,0,0,0,0,0,0,0,0,0,0,0,0,0,0,0,0,-1.1191,-1.1193,0,-1.1339,-1.1341,-1.1342,-1.1379,-1.1378,-1.1377,-1.1376,-1.1535,-1.154,-1.1545,0,0,0,0,0,0,0,0,0,0,0,0,0,-1.0948,-1.0952,-1.1191,-1.1193,-1.1195,-1.1339,-1.1341,-1.1343,-1.1379,-1.1378,-1.1377,-1.1375,-1.1533,-1.1539,-1.1545,0,0,0,0,0,0,0,0,0,0,0,0,0,-1.1071,-1.0954,-1.1191,-1.123,-1.1235,-1.1338,-1.1341,-1.1343,-1.1379,-1.1378,-1.1376,-1.1375,-1.1531,-1.1539,-1.1546,-1.1623,0,0,-1.157,-1.1573,0,0,0,0,0,0,0,0,-1.1064,-1.1079,-1.1222,-1.1228,-1.1233,-1.1339,-1.1313,-1.1438,-1.138,-1.1325,-1.1376,-1.1374,-1.1471,-1.1484,-1.1515,-1.1631,-1.1638,-1.1571,-1.1575,-1.1579,-1.1581,0,0,0,0,0,0,0,-1.1055,-1.1073,-1.125,-1.1225,-1.1231,-1.1243,-1.1258,-1.1337,-1.1405,-1.1329,-1.1332,-1.1349,-1.1474,-1.1508,-1.1519,-1.164,-1.157,-1.1577,-1.1582,-1.1585,-1.1828,-1.183,0,0,0,0,0,0,-1.1039,-1.1066,-1.1245,-1.1254,-1.1143,-1.1248,-1.1266,-1.1307,-1.1404,-1.1417,-1.135,-1.135,-1.1495,-1.151,-1.1525,-1.1622,-1.1579,-1.1586,-1.159,-1.1827,-1.1829,-1.1831,0,0,0,0,0,0,-1.1033,-1.1054,-1.1239,-1.1161,-1.1185,-1.1254,-1.1299,-1.131,-1.1344,-1.1419,-1.1432,-1.1371,-1.1494,-1.1514,-1.1598,-1.1628,-1.1589,-1.1596,-1.1824,-1.1827,-1.183,-1.1817,0,0,0,0,0,0,-1.1026,-1.1052,-1.108,-1.1161,-1.1189,-1.1308,-1.1301,-1.1314,-1.1356,-1.1357,-1.1443,-1.1456,-1.1495,-1.1587,-1.1606,-1.1638,-1.1602,-1.1822,-1.1826,-1.1829,-1.1815,-1.1819,-1.1823,0,0,0,0,0,-1.1017,-1.1072,-1.1081,-1.1103,-1.1226,-1.1309,-1.1326,-1.1368,-1.1358,-1.1388,-1.1437,-1.1453,-1.1622,-1.1595,-1.1617,-1.1652,-1.182,-1.1825,-1.1829,-1.1814,-1.1819,-1.1823,0,0,0,0,0,0,-1.0996,-1.1084,-1.1095,-1.1177,-1.1235,-1.1315,-1.1355,-1.1371,-1.1435,-1.1434,-1.1486,-1.1505,-1.1586,-1.1628,-1.1596,-1.1733,-1.1721,-1.173,-1.1702,-1.1708,-1.1711,-1.17,-1.1609,0,0,0,0,0,-1.1,-1.1058,-1.1133,-1.1199,-1.1227,-1.1285,-1.1324,-1.1351,-1.1414,-1.144,-1.1495,-1.1558,-1.1625,-1.1669,-1.1735,-1.1822,-1.1842,-1.1857,-1.186,-1.1863,-1.187,-1.1921,-1.1929,-1.1844,-1.1844,-1.1844,0,0,-1.101,-1.1066,-1.11,-1.1196,-1.1244,-1.1305,-1.1306,-1.1371,-1.1418,-1.1451,-1.1533,-1.1576,-1.165,-1.1736,-1.1776,-1.1773,-1.1898,-1.1868,-1.187,-1.1876,-1.1926,-1.1934,-1.1941,-1.1847,-1.1847,-1.1846,0,0,-1.1061,-1.1108,-1.1168,-1.1216,-1.1288,-1.1326,-1.1341,-1.1419,-1.1447,-1.153,-1.1556,-1.1614,-1.1729,-1.1781,-1.1822,-1.1893,-1.191,-1.1913,-1.1933,-1.1981,-1.1988,-1.1994,-1.202,-1.2029,-1.192,-1.192,-1.192,0,-1.1066,-1.1157,-1.1197,-1.1261,-1.1303,-1.1332,-1.1395,-1.1441,-1.1532,-1.1561,-1.1555,-1.17,-1.1752,-1.1851,-1.1868,-1.19,-1.1921,-1.1904,-1.1983,-1.199,-1.1996,-1.2022,-1.2032,-1.192,-1.192,-1.192,-1.192,0,-1.1159,-1.1223,-1.1263,-1.1347,-1.1394,-1.1457,-1.1509,-1.1553,-1.1576,-1.1616,-1.1701,-1.1764,-1.1844,-1.187,-1.1894,-1.1973,-1.1969,-1.1972,-1.1962,-1.2003,-1.2029,-1.2039,-1.192,-1.192,-1.192,-1.192,0,0,-1.1201,-1.1306,-1.132,-1.1359,-1.1441,-1.1492,-1.1557,-1.1633,-1.1669,-1.1732,-1.1789,-1.1885,-1.1889,-1.1936,-1.1967,-1.2009,-1.2063,-1.2008,-1.2011,-1.2017,-1.2156,-1.2153,-1.2163,-1.2074,-1.2076,-1.2078,-1.215,0,-1.1262,-1.1376,-1.1415,-1.1511,-1.1571,-1.16,-1.1657,-1.1715,-1.1754,-1.1813,-1.1858,-1.1925,-1.1925,-1.1953,-1.1997,-1.2047,-1.2091,-1.2042,-1.2131,-1.2134,-1.2112,-1.2177,-1.2174,-1.2238,-1.216,-1.2162,-1.2163,0,-1.1349,-1.1409,-1.151,-1.1585,-1.1612,-1.1662,-1.1735,-1.179,-1.1857,-1.1883,-1.1935,-1.1962,-1.2034,-1.2019,-1.2121,-1.2086,-1.2125,-1.2156,-1.2159,-1.217,-1.2151,-1.219,-1.226,-1.227,-1.2179,-1.2177,-1.2176,0,-1.137,-1.1477,-1.1552,-1.1584,-1.1673,-1.1708,-1.1747,-1.1812,-1.1855,-1.192,-1.1949,-1.2022,-1.2063,-1.212,-1.2168,-1.2152,-1.2266,-1.2254,-1.2292,-1.229,-1.2315,-1.2313,-1.2393,-1.2338,-1.2338,-1.2338,-1.2338,0,-1.1435,-1.1496,-1.1562,-1.1608,-1.1678,-1.1723,-1.1792,-1.1833,-1.1891,-1.1948,-1.1979,-1.2032,-1.209,-1.2152,-1.219,-1.2269,-1.2287,-1.2312,-1.2322,-1.231,-1.2307,-1.2337,-1.2334,-1.2341,-1.234,-1.2339,-1.2339,0,-1.147,-1.1517,-1.16,-1.1676,-1.1697,-1.1746,-1.1813,-1.186,-1.19,-1.1972,-1.1991,-1.2056,-1.213,-1.2183,-1.2279,-1.2305,-1.239,-1.2399,-1.2367,-1.2372,-1.2406,-1.2403,-1.2509,-1.2526,-1.2459,-1.246,-1.246,0,-1.1508,-1.1556,-1.1637,-1.1675,-1.1714,-1.1776,-1.1819,-1.1866,-1.1911,-1.1991,-1.203,-1.2105,-1.2168,-1.2286,-1.2343,-1.2418,-1.2429,-1.2462,-1.2441,-1.2428,-1.2431,-1.2428,-1.2434,-1.2465,-1.2465,-1.2466,-1.2466,0,-1.1572,-1.1593,-1.1653,-1.1722,-1.1772,-1.1829,-1.1887,-1.1918,-1.1975,-1.2025,-1.2099,-1.2148,-1.2245,-1.2321,-1.2401,-1.2445,-1.2466,-1.2472,-1.2485,-1.2474,-1.2453,-1.2466,-1.2376,-1.247,-1.2469,-1.2469,-1.2469,-1.2469,-1.1611,-1.1655,-1.1718,-1.1785,-1.1833,-1.1886,-1.1934,-1.1979,-1.2041,-1.2122,-1.2147,-1.2225,-1.2293,-1.2402,-1.2447,-1.2511,-1.2509,-1.2528,-1.2533,-1.2537,-1.2537,-1.2442,-1.2526,-1.2526,-1.2526,-1.2526,-1.2526,0,-1.1677,-1.1719,-1.178,-1.1858,-1.1911,-1.1923,-1.1988,-1.2033,-1.21,-1.216,-1.2221,-1.2307,-1.2381,-1.2444,-1.2521,-1.256,-1.2572,-1.2579,-1.2577,-1.2588,-1.2533,-1.2515,-1.2568,-1.2568,-1.2568,-1.2568,-1.2568,-1.2568,-1.1718,-1.1792,-1.182,-1.192,-1.1963,-1.2037,-1.2073,-1.2123,-1.2171,-1.2266,-1.2326,-1.2365,-1.2428,-1.251,-1.2579,-1.2596,-1.2624,-1.2628,-1.2648,-1.2596,-1.2591,-1.2586,-1.2569,-1.2634,-1.2634,-1.2697,-1.2698,-1.2698]},{"header":{"parameterUnit":"m.s-1","parameterCategory":1,"la1":30.2991,"la2":30.254,"lo1":-89.0895,"lo2":-89.0444,"dy":0.0017,"dx":0.0017,"nx":28,"ny":28,"refTime":"2023-11-10T09:00:00:Z","depth":0,"parameterNumber":3,"parameterNumberName":"V-component_of_WINDS"},"data":[0,0,0,0,0,0,0,0,0,0,0,0,0,0,0,0,0,0,0,0,0,0,0,0,0,0,0,0,0,0,0,0,0,0,0,0,0,0,0,0,0,0,0,0,0,0,0,0,0,0,0,0,0,0,0,0,0,0,-5.555,-5.5549,0,-5.544,-5.5438,-5.5437,-5.5299,-5.5296,-5.5294,-5.5292,-5.5175,-5.5174,-5.5173,0,0,0,0,0,0,0,0,0,0,0,0,0,-5.5636,-5.5636,-5.555,-5.5549,-5.5547,-5.544,-5.5438,-5.5437,-5.5299,-5.5296,-5.5294,-5.5291,-5.5175,-5.5174,-5.5173,0,0,0,0,0,0,0,0,0,0,0,0,0,-5.557,-5.5635,-5.555,-5.5466,-5.5457,-5.544,-5.5438,-5.5436,-5.53,-5.5296,-5.5293,-5.529,-5.5176,-5.5174,-5.5173,-5.5229,0,0,-5.5168,-5.5167,0,0,0,0,0,0,0,0,-5.5574,-5.5567,-5.5479,-5.5471,-5.5462,-5.538,-5.5426,-5.5367,-5.53,-5.5359,-5.5292,-5.5288,-5.5245,-5.5238,-5.5224,-5.5223,-5.5218,-5.5168,-5.5167,-5.5166,-5.5165,0,0,0,0,0,0,0,-5.5579,-5.5571,-5.5506,-5.5478,-5.5468,-5.5432,-5.5418,-5.5414,-5.5322,-5.5354,-5.5344,-5.5333,-5.524,-5.5226,-5.5221,-5.5216,-5.5168,-5.5166,-5.5165,-5.5165,-5.5253,-5.5256,0,0,0,0,0,0,-5.5596,-5.5576,-5.551,-5.5503,-5.5511,-5.5433,-5.5418,-5.5409,-5.5322,-5.5305,-5.5336,-5.5327,-5.5231,-5.5223,-5.5216,-5.5274,-5.5166,-5.5164,-5.5163,-5.525,-5.5254,-5.5257,0,0,0,0,0,0,-5.5599,-5.5592,-5.5514,-5.5536,-5.5524,-5.5435,-5.5426,-5.5409,-5.5395,-5.5308,-5.529,-5.5339,-5.5228,-5.5218,-5.5226,-5.5268,-5.5164,-5.5162,-5.5246,-5.5251,-5.5255,-5.5393,0,0,0,0,0,0,-5.5602,-5.5594,-5.5616,-5.5538,-5.5523,-5.5529,-5.5429,-5.5409,-5.5393,-5.538,-5.5306,-5.5291,-5.5224,-5.5229,-5.5225,-5.5264,-5.5161,-5.5241,-5.5248,-5.5254,-5.5384,-5.5402,-5.5417,0,0,0,0,0,-5.5606,-5.5658,-5.5617,-5.561,-5.5549,-5.5532,-5.5523,-5.5446,-5.5397,-5.5417,-5.5361,-5.5293,-5.5265,-5.5231,-5.5225,-5.5265,-5.5238,-5.5246,-5.5253,-5.5377,-5.5399,-5.5417,0,0,0,0,0,0,-5.5742,-5.5647,-5.56,-5.563,-5.559,-5.5508,-5.5531,-5.5472,-5.5444,-5.5433,-5.5338,-5.5323,-5.5342,-5.5304,-5.5269,-5.5313,-5.5241,-5.5248,-5.5338,-5.5357,-5.5374,-5.5382,-5.516,0,0,0,0,0,-5.5776,-5.5771,-5.5687,-5.5721,-5.5704,-5.5622,-5.5611,-5.5556,-5.551,-5.5492,-5.5436,-5.5393,-5.5374,-5.5363,-5.5341,-5.5378,-5.5358,-5.5402,-5.5418,-5.5432,-5.5439,-5.5453,-5.5471,-5.5282,-5.5282,-5.5281,0,0,-5.5845,-5.5792,-5.5795,-5.5747,-5.571,-5.5706,-5.5608,-5.5608,-5.5603,-5.5491,-5.5496,-5.5454,-5.5399,-5.5421,-5.5428,-5.539,-5.5487,-5.5442,-5.5454,-5.5452,-5.5463,-5.5481,-5.5497,-5.5287,-5.5286,-5.5285,0,0,-5.5969,-5.5929,-5.5953,-5.5917,-5.5862,-5.5807,-5.5813,-5.574,-5.5707,-5.5711,-5.5626,-5.5618,-5.5588,-5.5551,-5.5529,-5.5638,-5.5574,-5.5633,-5.5719,-5.5734,-5.5749,-5.5762,-5.5799,-5.5814,-5.564,-5.564,-5.5641,0,-5.6062,-5.6053,-5.5972,-5.5977,-5.5958,-5.5857,-5.5879,-5.5848,-5.5788,-5.5776,-5.5734,-5.5693,-5.5649,-5.5661,-5.5687,-5.5673,-5.5675,-5.5641,-5.5754,-5.5766,-5.5776,-5.5811,-5.5825,-5.5648,-5.5647,-5.5646,-5.5646,0,-5.6169,-5.6165,-5.619,-5.6136,-5.6119,-5.6133,-5.6051,-5.6044,-5.599,-5.5938,-5.5941,-5.5885,-5.5849,-5.5847,-5.5794,-5.585,-5.5828,-5.5772,-5.5698,-5.5803,-5.5834,-5.5847,-5.5659,-5.5656,-5.5654,-5.5652,0,0,-5.6377,-5.6277,-5.6288,-5.6261,-5.6192,-5.6186,-5.6194,-5.616,-5.6155,-5.6116,-5.6119,-5.6095,-5.6041,-5.6016,-5.5957,-5.5971,-5.6058,-5.5912,-5.5909,-5.594,-5.6115,-5.6158,-5.6175,-5.6015,-5.6018,-5.6019,-5.6119,0,-5.6487,-5.6497,-5.6423,-5.6452,-5.6446,-5.6349,-5.6355,-5.6313,-5.6264,-5.625,-5.6195,-5.618,-5.6111,-5.6095,-5.6104,-5.6046,-5.6092,-5.6038,-5.6015,-5.6015,-5.6032,-5.6191,-5.6237,-5.6334,-5.6131,-5.6133,-5.6134,0,-5.6618,-5.6588,-5.6617,-5.6545,-5.6539,-5.6547,-5.6509,-5.6497,-5.6446,-5.6409,-5.6381,-5.6314,-5.6313,-5.6243,-5.624,-5.6205,-5.6191,-5.6161,-5.6162,-5.6157,-5.6081,-5.6189,-5.6363,-5.6378,-5.6153,-5.6151,-5.615,0,-5.6766,-5.6732,-5.6744,-5.6725,-5.6642,-5.6649,-5.6614,-5.656,-5.6544,-5.6509,-5.6497,-5.6463,-5.6444,-5.6418,-5.6342,-5.6298,-5.6347,-5.6271,-5.6315,-5.6317,-5.6329,-5.633,-5.6503,-5.6322,-5.6322,-5.6321,-5.6321,0,-5.6896,-5.6918,-5.6809,-5.6817,-5.6837,-5.6751,-5.6772,-5.6727,-5.6679,-5.6675,-5.6588,-5.6586,-5.6486,-5.6471,-5.6411,-5.6417,-5.6409,-5.6377,-5.6361,-5.6385,-5.6389,-5.6374,-5.6365,-5.6325,-5.6324,-5.6323,-5.6323,0,-5.7065,-5.6993,-5.7,-5.6921,-5.6902,-5.692,-5.6851,-5.6853,-5.6799,-5.6794,-5.6788,-5.6703,-5.668,-5.6602,-5.656,-5.6519,-5.6543,-5.6512,-5.6562,-5.6551,-5.6599,-5.6595,-5.6768,-5.6786,-5.6595,-5.6597,-5.6598,0,-5.7153,-5.7167,-5.709,-5.7082,-5.7051,-5.7039,-5.7022,-5.6936,-5.6922,-5.6863,-5.6872,-5.6843,-5.6816,-5.6784,-5.6716,-5.6683,-5.665,-5.6713,-5.6644,-5.6667,-5.665,-5.665,-5.665,-5.6728,-5.6731,-5.6733,-5.6734,0,-5.7317,-5.7281,-5.7261,-5.7228,-5.721,-5.718,-5.7144,-5.7142,-5.7046,-5.7034,-5.7011,-5.699,-5.6947,-5.6918,-5.6874,-5.6834,-5.6768,-5.6756,-5.6764,-5.6789,-5.6816,-5.6801,-5.6601,-5.6753,-5.6751,-5.675,-5.6749,-5.6748,-5.7447,-5.7455,-5.7401,-5.7381,-5.7345,-5.7314,-5.7312,-5.7258,-5.7238,-5.7198,-5.7148,-5.7131,-5.7075,-5.7009,-5.6975,-5.6958,-5.6922,-5.6934,-5.6937,-5.6941,-5.6952,-5.682,-5.695,-5.6949,-5.6948,-5.6948,-5.6947,0,-5.7606,-5.7567,-5.7549,-5.7502,-5.7486,-5.7426,-5.7383,-5.7373,-5.736,-5.7315,-5.729,-5.7262,-5.7233,-5.7163,-5.7127,-5.7127,-5.7095,-5.712,-5.7119,-5.7111,-5.6987,-5.6984,-5.7146,-5.7146,-5.7146,-5.7146,-5.7146,-5.7146,-5.7687,-5.7696,-5.7653,-5.7643,-5.7602,-5.7586,-5.7567,-5.7536,-5.75,-5.7474,-5.745,-5.7405,-5.7349,-5.7308,-5.7278,-5.7257,-5.7248,-5.7283,-5.7253,-5.7139,-5.712,-5.7102,-5.7097,-5.7282,-5.7282,-5.7377,-5.7378,-5.7378]}]]